Date,TemperatureHighF,TemperatureAvgF,TemperatureLowF,DewpointHighF,DewpointAvgF,DewpointLowF,HumidityHigh,HumidityAvg,HumidityLow,PressureMaxIn,PressureMinIn,WindSpeedMaxMPH,WindSpeedAvgMPH,GustSpeedMaxMPH,PrecipitationSumIn
2013-1-1,55.5,46.6,36.6,52.9,43.3,32.2,91,88,80,30.19,29.93,0,0,0,0.09
2013-1-2,42.2,35.5,27.3,32.2,28.3,22.7,84,75,62,30.27,30.18,0,0,0,0.00
2013-1-3,42.6,36.2,26.2,32.4,28.9,22.3,88,75,61,30.38,30.26,0,0,0,0.00
2013-1-4,39.5,37.6,33.4,36.2,34.1,30.6,91,87,76,30.45,30.32,0,0,0,0.22
2013-1-5,55.9,45.2,35.2,42.7,38.6,31.8,91,79,59,30.32,30.17,0,0,0,0.04
2013-1-6,57.3,42.1,28.0,34.9,31.0,25.4,91,68,37,30.35,30.23,0,0,0,0.00
2013-1-7,57.2,45.6,27.3,39.2,34.1,23.6,88,66,47,30.27,30.01,0,0,0,0.00
2013-1-8,51.9,48.6,45.6,49.3,45.4,39.2,91,89,75,30.01,29.84,0,0,0,1.24
2013-1-9,56.3,52.8,48.9,53.7,50.2,46.4,92,91,90,29.98,29.82,0,0,0,1.25
2013-1-10,65.4,52.7,42.4,47.8,44.2,40.2,92,75,49,30.00,29.93,0,0,0,0.02
2013-1-11,71.2,57.8,47.8,62.1,51.7,41.4,91,81,63,29.97,29.78,0,0,0,0.00
2013-1-12,71.7,65.7,46.2,65.7,57.7,0.0,92,81,59,29.85,29.64,0,0,0,0.00
2013-1-13,49.6,40.3,33.6,35.0,28.8,24.9,74,64,50,30.13,29.87,0,0,0,0.00
2013-1-14,48.9,35.8,30.9,30.5,25.0,21.5,71,65,48,30.20,30.05,0,0,0,0.00
2013-1-15,38.4,34.1,30.0,31.5,30.0,22.0,90,85,71,30.20,30.05,0,0,0,0.01
2013-1-16,51.0,36.6,26.0,23.9,21.0,18.2,78,56,30,30.28,30.14,0,0,0,0.00
2013-1-17,64.0,43.9,31.2,38.0,31.5,22.6,84,64,36,30.42,30.26,0,0,0,0.00
2013-1-18,67.2,47.9,28.5,39.0,33.4,25.1,89,61,32,30.45,30.26,0,0,0,0.00
2013-1-19,68.9,50.1,36.1,46.9,40.2,32.5,90,71,43,30.26,30.10,0,0,0,0.00
2013-1-20,76.8,57.1,42.2,51.4,44.4,38.5,90,67,32,30.19,30.05,0,0,0,0.00
2013-1-21,71.2,53.5,40.8,53.0,46.0,37.5,90,77,50,30.20,30.09,0,0,0,0.00
2013-1-27,78.4,66.8,59.7,63.4,60.3,56.5,90,81,58,30.05,29.91,0,0,0,0.00
2013-1-28,77.0,69.1,66.0,65.3,63.7,62.8,91,83,66,29.99,29.83,0,0,0,0.00
2013-1-29,80.7,67.1,51.6,65.6,55.0,25.3,91,68,31,29.85,29.51,0,0,0,0.00
2013-1-30,56.1,47.6,32.9,27.7,20.9,16.0,61,36,22,30.18,29.77,0,0,0,0.00
2013-1-31,37.9,34.7,31.8,21.3,19.7,18.5,61,54,47,30.18,30.15,0,0,0,0.00
2013-2-15,62.4,49.1,32.5,39.6,35.0,22.7,85,60,42,30.34,30.11,0,0,0,0.00
2013-2-16,68.9,45.4,25.3,31.5,25.8,20.0,81,51,23,30.40,30.16,0,0,0,0.00
2013-2-17,71.9,57.1,45.1,49.6,36.0,24.8,74,47,30,30.16,29.92,0,0,0,0.00
2013-2-18,82.5,65.5,53.0,58.5,45.2,25.5,83,54,17,30.06,29.81,0,0,0,0.00
2013-2-19,70.3,54.1,34.5,33.1,29.5,25.3,74,42,21,30.22,30.03,0,0,0,0.00
2013-2-20,64.0,55.4,50.9,61.4,45.5,28.1,91,72,35,30.07,29.60,0,0,0,0.02
2013-2-21,77.5,63.8,46.4,62.6,40.6,21.9,91,51,14,29.84,29.54,0,0,0,0.00
2013-2-22,59.9,47.2,37.2,36.2,31.4,25.3,81,56,37,30.01,29.83,0,0,0,0.00
2013-2-23,73.5,51.6,32.3,40.2,32.0,25.1,77,51,25,30.01,29.84,0,0,0,0.00
2013-2-24,75.0,57.3,41.7,56.2,46.2,32.5,87,68,42,29.88,29.55,0,0,0,0.00
2013-2-25,60.4,53.7,43.3,57.2,36.1,22.1,90,55,24,29.82,29.51,0,0,0,0.00
2013-2-26,69.9,52.0,36.3,31.3,28.0,24.8,66,42,22,29.92,29.79,0,0,0,0.00
2013-2-27,61.1,50.5,35.6,34.8,27.1,18.8,57,41,26,30.19,29.82,0,0,0,0.00
2013-2-28,60.9,44.2,31.6,31.5,25.1,18.7,65,49,27,30.28,30.14,0,0,0,0.00
2013-3-1,71.2,48.7,28.4,30.6,23.4,16.2,74,43,17,30.25,30.08,0,0,0,0.00
2013-3-2,61.8,45.4,31.1,30.5,26.7,21.9,73,51,29,30.37,30.21,0,0,0,0.00
2013-3-3,77.5,58.6,42.4,41.6,32.2,23.8,56,39,22,30.21,29.86,0,0,0,0.00
2013-3-4,91.7,68.0,51.9,51.3,45.2,39.8,80,49,21,29.86,29.67,0,0,0,0.00
2013-3-5,66.0,53.6,33.0,53.1,26.4,12.3,70,39,17,30.32,29.72,0,0,0,0.00
2013-3-6,66.9,45.4,26.2,23.3,18.1,12.2,62,37,17,30.39,30.16,0,0,0,0.00
2013-3-7,73.7,57.4,40.4,52.0,42.3,19.2,80,59,40,30.19,30.04,0,0,0,0.00
2013-3-8,62.6,59.3,55.5,59.7,55.5,51.0,90,87,78,30.10,29.96,0,0,0,0.06
2013-3-9,72.1,64.1,60.2,65.7,60.8,56.5,91,89,79,29.96,29.62,0,0,0,0.08
2013-3-10,63.3,55.7,39.7,58.8,40.5,31.4,91,59,36,30.09,29.68,0,0,0,0.69
2013-3-11,66.5,47.3,29.3,34.4,28.7,24.3,85,55,24,30.13,29.96,0,0,0,0.00
2013-3-12,82.5,61.4,45.5,39.3,33.3,24.8,55,37,20,30.18,30.01,0,0,0,0.00
2013-3-13,80.6,60.2,40.8,42.6,37.1,32.3,76,45,24,30.38,30.18,0,0,0,0.00
2013-3-14,79.8,61.6,46.2,53.0,44.9,34.0,86,58,32,30.33,30.17,0,0,0,0.00
2013-3-15,81.8,65.7,52.3,54.6,48.8,40.8,88,59,31,30.19,29.95,0,0,0,0.00
2013-3-16,85.4,68.4,56.3,59.6,54.2,48.7,89,64,32,29.96,29.71,0,0,0,0.00
2013-3-17,88.5,70.9,63.6,62.5,58.9,55.5,83,68,38,29.79,29.64,0,0,0,0.00
2013-3-18,87.6,72.5,59.1,62.9,51.9,40.3,90,56,21,29.92,29.67,0,0,0,0.00
2013-3-19,86.0,64.8,43.3,62.5,51.8,38.5,86,65,39,29.96,29.80,0,0,0,0.00
2013-3-20,73.2,58.3,50.5,52.5,45.8,35.0,90,68,27,30.20,29.97,0,0,0,0.17
2013-3-21,76.6,63.2,52.8,59.2,50.8,38.4,83,65,52,29.99,29.59,0,0,0,0.00
2013-3-22,90.6,71.2,58.2,65.6,60.3,47.7,89,71,42,29.74,29.60,0,0,0,0.00
2013-3-23,83.4,61.9,49.2,61.1,51.0,45.0,89,70,38,29.77,29.57,0,0,0,0.00
2013-3-24,60.9,49.8,37.0,56.7,31.5,22.2,87,53,27,30.12,29.66,0,0,0,0.00
2013-3-25,60.4,44.1,30.0,24.1,20.6,16.2,72,44,20,30.33,30.12,0,0,0,0.00
2013-3-26,70.1,48.3,27.5,27.8,22.0,18.1,70,40,18,30.41,30.22,0,0,0,0.00
2013-3-27,70.1,54.6,39.7,46.5,37.0,21.5,72,53,37,30.26,30.09,0,0,0,0.00
2013-3-28,72.6,61.8,54.1,58.5,53.4,46.1,82,74,60,30.15,30.07,0,0,0,0.00
2013-3-29,78.8,68.4,59.1,58.2,55.8,54.2,87,66,47,30.13,30.01,0,0,0,0.00
2013-3-30,84.3,69.9,61.7,62.6,59.3,55.9,89,71,45,30.07,29.86,0,0,0,0.00
2013-3-31,86.1,69.0,57.2,64.6,60.2,53.0,88,75,43,29.94,29.80,0,0,0,0.06
2013-4-1,89.4,69.7,54.3,65.6,58.6,51.1,90,71,41,30.02,29.86,0,0,0,0.00
2013-4-2,78.4,66.4,55.9,65.3,60.7,52.4,90,83,62,29.96,29.81,0,0,0,1.10
2013-4-3,53.9,49.4,45.5,51.0,46.8,43.0,91,91,90,30.10,29.83,0,0,0,0.51
2013-4-4,60.9,49.3,43.5,45.2,41.5,38.1,91,76,54,30.17,30.06,0,0,0,0.02
2013-4-5,78.4,55.2,34.7,51.0,41.9,31.4,90,66,34,30.21,30.01,0,0,0,0.00
2013-5-10,90.3,71.7,61.3,64.6,60.4,56.9,90,71,35,30.00,29.81,0,0,0,0.81
2013-5-11,79.5,67.8,58.2,60.9,55.9,51.0,90,68,41,30.13,29.99,0,0,0,0.00
2013-5-12,81.6,65.2,50.7,56.4,50.6,43.8,89,62,35,30.23,30.08,0,0,0,0.00
2013-5-13,91.0,68.5,47.1,57.0,49.4,41.2,85,55,27,30.21,30.10,0,0,0,0.00
2013-5-14,87.9,73.3,60.0,64.9,59.5,53.7,87,64,38,30.18,29.96,0,0,0,0.00
2013-5-15,86.5,73.3,63.1,71.4,66.4,59.4,90,80,56,30.05,29.79,0,0,0,1.41
2013-5-16,92.3,76.9,67.8,73.7,68.5,64.7,90,77,50,29.83,29.69,0,0,0,0.08
2013-5-17,94.8,81.2,71.4,75.9,70.6,66.9,88,72,49,29.87,29.76,0,0,0,0.00
2013-5-18,95.1,79.7,69.4,70.9,67.1,63.1,89,68,43,29.89,29.78,0,0,0,0.00
2013-5-19,91.9,78.8,69.4,72.2,67.7,63.8,87,70,50,29.82,29.70,0,0,0,0.00
2013-5-20,93.7,77.2,70.7,71.9,67.7,65.7,87,74,47,29.81,29.68,0,0,0,0.00
2013-5-21,88.3,76.9,66.9,72.7,67.9,57.9,87,74,58,29.87,29.70,0,0,0,0.00
2013-5-22,97.8,78.2,54.6,70.0,60.5,50.8,88,60,29,29.91,29.79,0,0,0,0.00
2013-5-23,90.1,79.0,71.6,72.3,69.7,67.5,88,74,55,30.02,29.86,0,0,0,0.00
2013-5-24,79.7,71.3,66.7,71.5,66.7,63.0,90,86,68,30.09,29.98,0,0,0,0.92
2013-5-25,82.4,71.8,66.7,71.5,66.9,63.9,91,85,64,30.11,30.00,0,0,0,1.69
2013-5-26,87.0,75.6,69.6,74.3,69.0,66.2,90,81,63,30.06,29.94,0,0,0,0.04
2013-5-27,88.8,76.3,69.0,73.4,68.3,65.3,89,77,56,29.99,29.82,0,0,0,0.00
2013-5-28,88.8,77.2,70.3,74.2,67.9,65.7,87,74,53,29.88,29.74,0,0,0,0.00
2013-5-29,86.0,77.6,71.4,72.7,69.5,67.3,87,76,62,29.87,29.68,0,0,0,0.00
2013-5-30,88.3,78.2,72.1,73.4,69.9,67.7,88,77,58,29.83,29.73,0,0,0,0.00
2013-5-31,91.2,79.9,73.5,75.7,71.3,68.8,87,76,59,29.86,29.74,0,0,0,0.00
2013-6-1,98.6,83.3,73.7,75.6,71.5,68.9,86,70,47,29.89,29.77,0,0,0,0.00
2013-6-2,86.1,75.8,66.5,71.9,64.4,59.2,90,70,43,30.05,29.88,0,0,0,1.15
2013-6-3,94.6,77.6,59.9,69.9,63.3,56.3,89,64,38,29.98,29.82,0,0,0,0.00
2013-6-4,94.8,80.9,68.5,71.3,66.0,62.6,89,64,37,29.89,29.79,0,0,0,0.00
2013-6-5,96.4,80.1,68.3,71.9,66.8,63.7,89,67,41,29.87,29.74,0,0,0,0.00
2013-6-6,96.4,76.5,65.6,70.8,65.2,61.7,90,71,38,29.92,29.77,0,0,0,0.00
2013-6-7,86.3,74.1,66.5,64.9,60.7,53.9,86,65,44,30.00,29.87,0,0,0,0.00
2013-6-8,90.5,76.5,57.3,70.8,62.5,52.5,86,64,46,29.92,29.78,0,0,0,0.00
2013-6-9,95.3,78.9,68.5,74.2,69.1,63.3,86,73,49,29.96,29.82,0,0,0,0.00
2013-6-10,100.2,81.2,68.5,74.9,68.0,63.7,89,68,34,29.99,29.90,0,0,0,0.00
2013-6-11,96.9,81.4,71.6,73.0,69.4,64.6,89,69,44,30.02,29.94,0,0,0,0.00
2013-6-12,96.2,81.6,72.8,73.7,70.4,67.9,88,71,44,30.03,29.93,0,0,0,0.00
2013-6-13,99.6,79.8,72.3,74.7,70.2,65.3,89,75,43,30.05,29.92,0,0,0,0.00
2013-6-14,90.3,79.1,71.2,74.6,71.2,67.1,89,78,58,29.99,29.90,0,0,0,0.00
2013-6-15,91.2,81.8,73.9,74.7,71.8,68.4,89,73,55,29.99,29.90,0,0,0,0.00
2013-6-16,97.8,83.2,73.0,73.0,69.8,66.4,89,67,41,30.01,29.88,0,0,0,0.00
2013-6-17,99.3,83.8,73.5,73.7,69.9,65.3,87,66,39,30.00,29.85,0,0,0,0.00
2013-6-18,98.2,81.9,69.0,73.4,69.1,64.8,89,67,42,30.00,29.87,0,0,0,0.09
2013-6-19,98.7,83.4,72.6,71.8,68.8,65.4,88,64,39,29.96,29.89,0,0,0,0.00
2013-6-20,97.5,84.2,72.6,71.8,68.6,64.3,87,62,39,30.04,29.93,0,0,0,0.00
2013-6-21,97.5,84.0,73.5,71.5,67.2,60.0,87,60,37,30.05,29.95,0,0,0,0.00
2013-6-22,99.1,85.8,72.3,71.1,67.7,61.7,87,58,35,30.03,29.88,0,0,0,0.00
2013-6-23,97.8,78.5,73.2,70.0,67.7,61.9,87,72,34,29.97,29.88,0,0,0,0.00
2013-6-24,98.6,83.4,72.6,72.5,68.3,64.5,87,64,37,30.01,29.88,0,0,0,0.00
2013-6-25,100.0,84.9,74.8,70.0,68.5,65.9,84,61,35,29.98,29.86,0,0,0,0.00
2013-6-26,101.8,83.1,73.7,73.5,69.7,67.4,84,67,35,29.96,29.88,0,0,0,0.00
2013-7-2,92.1,81.6,57.3,60.6,53.2,48.2,86,40,25,30.07,29.95,0,0,0,0.00
2013-7-3,98.2,78.6,57.3,59.8,50.1,46.3,76,41,20,30.02,29.89,0,0,0,0.00
2013-7-4,98.4,81.1,68.1,66.5,58.8,51.2,87,51,27,29.98,29.87,0,0,0,0.00
2013-7-5,103.2,85.8,67.2,67.8,61.6,56.2,87,50,24,29.97,29.82,0,0,0,0.00
2013-7-6,102.7,85.0,66.0,70.3,64.1,58.9,86,54,28,29.93,29.81,0,0,0,0.00
2013-7-7,103.2,84.1,70.3,72.5,68.9,64.3,87,64,32,29.97,29.86,0,0,0,0.00
2013-7-8,91.2,80.4,73.2,74.0,70.0,65.6,88,72,47,30.09,29.96,0,0,0,0.00
2013-7-9,101.3,90.1,71.6,71.2,68.8,66.7,88,53,35,30.12,29.99,0,0,0,0.00
2013-7-10,105.0,87.0,71.2,72.3,68.7,64.4,88,59,30,30.08,29.91,0,0,0,0.00
2013-7-11,106.1,87.5,73.7,72.5,67.6,61.9,85,56,28,30.00,29.87,0,0,0,0.00
2013-7-12,107.4,88.0,71.7,71.4,65.3,60.7,84,52,24,29.96,29.87,0,0,0,0.00
2013-7-13,106.1,87.4,69.6,67.3,63.1,58.4,80,48,23,29.98,29.84,0,0,0,0.00
2013-7-14,104.7,83.5,75.3,70.3,64.7,58.4,73,55,27,29.92,29.84,0,0,0,0.02
2013-7-15,75.3,72.1,69.6,70.5,67.7,65.7,89,86,73,30.00,29.88,0,0,0,0.98
2013-7-16,91.7,77.5,70.8,74.1,69.9,67.4,90,78,51,30.10,29.99,0,0,0,0.06
2013-7-17,84.0,72.3,68.9,71.8,68.0,65.8,90,87,67,30.15,30.09,0,0,0,1.35
2013-7-18,95.3,77.6,68.9,74.7,68.4,65.6,91,76,44,30.15,29.98,0,0,0,0.00
2013-7-19,98.9,81.1,69.0,71.8,68.0,63.5,90,68,38,30.06,29.90,0,0,0,0.00
2013-7-20,98.9,81.0,69.6,72.5,68.8,65.8,89,69,40,29.98,29.85,0,0,0,0.00
2013-7-21,98.7,81.2,71.2,74.4,70.7,67.8,90,73,42,29.94,29.86,0,0,0,0.00
2013-7-22,98.4,83.6,75.2,75.2,71.8,69.2,87,70,42,29.97,29.88,0,0,0,0.00
2013-7-23,96.9,84.6,75.5,72.8,70.2,64.8,84,65,39,30.00,29.86,0,0,0,0.00
2013-7-24,97.7,85.2,72.6,74.9,71.1,67.7,88,65,41,30.00,29.87,0,0,0,0.00
2013-7-25,102.3,84.3,73.0,72.1,69.2,64.1,88,65,34,30.01,29.93,0,0,0,0.00
2013-7-26,103.2,89.2,73.2,74.2,70.4,67.2,86,57,36,30.00,29.87,0,0,0,0.00
2013-7-27,86.3,78.2,71.9,73.1,69.6,65.8,89,76,55,29.97,29.89,0,0,0,0.00
2013-7-28,98.2,82.1,68.1,76.1,70.3,64.4,89,70,47,29.94,29.84,0,0,0,0.00
2013-7-29,98.4,83.9,74.8,72.5,69.8,65.0,86,66,34,30.00,29.91,0,0,0,0.00
2013-7-30,98.0,84.8,74.3,74.1,69.3,63.3,86,63,35,30.07,29.95,0,0,0,0.00
2013-7-31,104.1,85.7,72.3,70.3,67.2,63.2,88,59,29,30.07,29.93,0,0,0,0.00
2013-8-1,101.4,74.5,0.0,69.5,59.6,0.0,77,58,35,30.01,29.89,0,0,0,0.00
2013-8-2,82.0,62.7,0.0,65.7,50.6,0.0,71,62,58,29.94,29.92,0,0,0,0.00
2013-8-3,97.5,83.2,73.9,71.6,69.8,67.5,86,66,39,30.00,29.92,0,0,0,0.00
2013-8-4,100.9,87.6,74.1,74.1,70.6,67.2,87,60,39,30.06,29.92,0,0,0,0.00
2013-8-5,104.1,86.2,73.0,71.9,67.6,64.1,85,58,30,30.02,29.86,0,0,0,0.00
2013-8-6,102.7,79.9,73.0,73.2,69.6,65.4,86,72,30,29.94,29.84,0,0,0,0.00
2013-8-7,107.2,89.3,74.4,73.2,68.7,59.8,85,56,27,29.92,29.79,0,0,0,0.00
2013-8-8,104.9,89.2,73.5,70.6,66.3,59.0,85,52,29,29.89,29.77,0,0,0,0.00
2013-8-9,106.5,88.1,73.0,70.2,63.1,53.4,87,51,19,29.95,29.85,0,0,0,0.00
2013-8-10,103.8,87.8,71.2,71.7,67.4,61.8,84,55,28,30.04,29.92,0,0,0,0.00
2013-8-11,101.8,84.0,73.9,72.1,69.6,66.7,84,65,36,30.07,29.94,0,0,0,0.00
2013-8-12,101.4,87.4,82.5,68.5,66.9,65.4,63,52,35,30.00,29.94,0,0,0,0.00
2013-8-13,105.9,86.7,75.0,71.4,69.1,63.7,85,61,27,30.02,29.88,0,0,0,0.00
2013-8-14,107.7,85.1,75.0,70.5,68.4,66.0,84,62,27,29.99,29.89,0,0,0,0.01
2013-8-15,94.2,79.3,69.4,72.8,69.4,65.7,88,74,47,30.02,29.90,0,0,0,0.60
2013-8-16,89.7,76.6,69.4,73.1,67.2,63.5,89,75,45,30.05,29.92,0,0,0,0.04
2013-8-17,93.0,78.0,65.6,70.5,64.1,58.0,89,66,38,30.04,29.92,0,0,0,0.00
2013-8-18,96.6,77.1,62.2,66.4,59.9,56.6,85,58,32,30.04,29.96,0,0,0,0.00
2013-8-19,98.9,81.2,67.2,66.5,62.8,54.8,82,57,32,30.04,29.91,0,0,0,0.00
2013-8-20,99.1,81.8,65.4,68.5,63.6,59.7,87,58,30,30.01,29.92,0,0,0,0.00
2013-8-21,100.9,84.4,71.2,75.3,69.3,66.1,87,63,37,30.06,29.95,0,0,0,0.06
2013-8-22,101.8,81.7,68.5,72.8,68.4,64.6,88,67,38,30.08,29.92,0,0,0,0.00
2013-8-23,103.8,83.0,69.9,72.5,67.6,63.9,87,64,33,30.01,29.89,0,0,0,0.00
2013-8-24,102.7,88.0,70.8,70.4,67.6,64.8,85,53,33,30.04,29.92,0,0,0,0.00
2013-8-25,99.1,82.3,68.9,70.7,67.7,64.0,86,64,37,30.07,29.99,0,0,0,0.00
2013-8-26,93.2,78.6,72.1,71.6,68.9,67.0,88,73,46,30.11,30.01,0,0,0,0.00
2013-8-27,87.9,76.9,71.9,75.7,69.6,66.4,88,79,54,30.10,30.00,0,0,0,0.10
2013-8-28,100.9,82.5,71.0,73.2,68.1,64.7,89,66,35,30.10,29.99,0,0,0,0.00
2013-8-29,103.2,84.0,68.1,70.5,66.1,63.1,88,60,30,30.08,29.94,0,0,0,0.00
2013-8-30,105.6,86.7,72.1,68.3,64.6,62.2,72,50,28,30.02,29.87,0,0,0,0.00
2013-8-31,108.1,89.1,73.7,70.2,66.4,64.6,76,51,28,29.93,29.81,0,0,0,0.00
2013-9-1,103.4,86.1,73.2,72.2,67.3,63.6,82,57,30,29.91,29.80,0,0,0,0.00
2013-9-2,103.6,84.9,73.4,71.7,69.5,65.5,86,63,31,29.97,29.84,0,0,0,0.04
2013-9-3,102.9,84.5,67.2,70.2,65.5,63.2,88,58,31,30.00,29.87,0,0,0,0.00
2013-9-4,103.8,87.1,73.5,70.1,68.5,64.7,84,57,34,30.03,29.92,0,0,0,0.08
2013-9-5,101.1,84.0,69.9,71.2,68.3,65.5,88,64,35,30.09,29.98,0,0,0,0.00
2013-9-6,102.9,82.4,68.9,72.1,67.4,64.8,87,64,35,30.08,29.94,0,0,0,0.00
2013-9-7,99.5,80.3,72.1,73.0,68.4,65.0,88,70,33,30.03,29.89,0,0,0,0.00
2013-9-8,97.1,79.1,68.1,72.4,68.2,64.4,89,72,40,29.97,29.87,0,0,0,0.00
2013-9-9,95.3,78.9,69.0,74.7,68.3,65.0,88,73,42,29.98,29.89,0,0,0,0.02
2013-9-10,97.1,79.1,69.6,72.1,68.4,65.8,89,73,39,30.04,29.95,0,0,0,0.00
2013-9-11,96.9,81.0,70.8,72.2,67.1,61.0,89,67,34,30.08,29.97,0,0,0,0.00
2013-9-12,98.7,82.8,65.6,71.2,65.3,60.1,89,60,31,30.05,29.90,0,0,0,0.00
2013-9-13,101.1,83.8,67.1,68.6,63.8,59.3,87,55,28,29.96,29.81,0,0,0,0.00
2013-9-14,101.1,83.0,65.8,67.9,64.2,59.5,81,56,32,29.93,29.83,0,0,0,0.00
2013-9-15,97.8,81.8,68.3,71.6,67.2,63.6,87,64,38,30.00,29.90,0,0,0,0.00
2013-9-16,94.6,78.9,70.5,74.4,70.2,66.4,88,76,46,30.04,29.95,0,0,0,0.23
2013-9-17,95.5,78.9,70.3,74.5,69.6,66.7,89,75,46,30.05,29.92,0,0,0,0.02
2013-9-18,98.7,81.0,71.2,73.5,68.4,65.3,89,69,38,30.00,29.87,0,0,0,0.00
2013-9-19,95.9,79.5,72.6,74.2,71.0,68.2,89,77,44,29.94,29.81,0,0,0,0.02
2013-9-20,77.5,73.0,68.5,74.4,69.7,65.4,90,89,88,29.86,29.78,0,0,0,1.18
2013-9-21,82.4,68.6,55.5,65.4,60.2,50.4,91,77,38,29.92,29.82,0,0,0,0.02
2013-9-22,84.7,66.4,50.9,56.3,50.3,46.6,89,61,29,29.90,29.77,0,0,0,0.00
2013-9-23,94.2,71.9,51.4,58.3,52.5,47.3,88,56,27,29.83,29.73,0,0,0,0.00
2013-9-24,95.3,76.8,57.7,61.5,57.3,52.1,84,54,32,29.92,29.82,0,0,0,0.00
2013-9-25,100.2,80.0,61.5,65.8,60.3,55.7,85,55,32,29.90,29.77,0,0,0,0.00
2013-9-26,96.4,79.6,69.4,70.5,62.4,53.4,83,59,30,29.89,29.80,0,0,0,0.00
2013-9-27,89.4,79.0,72.6,74.7,71.8,68.2,87,79,60,29.90,29.80,0,0,0,0.06
2013-9-28,90.5,79.2,73.0,75.8,72.3,69.6,90,80,57,29.97,29.85,0,0,0,1.57
2013-9-29,74.1,66.3,61.1,69.6,62.4,57.7,91,87,72,30.04,29.92,0,0,0,0.86
2013-9-30,92.4,71.2,54.3,64.4,57.5,51.7,91,68,32,29.94,29.79,0,0,0,0.02
2013-10-1,93.9,78.0,64.9,71.7,67.0,55.3,91,72,45,29.90,29.82,0,0,0,0.00
2013-10-2,92.8,80.5,73.0,73.8,69.9,66.7,90,72,47,29.94,29.84,0,0,0,0.00
2013-10-3,92.6,79.3,72.1,72.0,69.8,66.9,89,75,49,29.92,29.82,0,0,0,0.00
2013-10-4,83.1,76.0,71.6,70.3,68.0,66.5,87,77,60,29.88,29.83,0,0,0,0.00
2013-10-5,91.0,70.9,58.8,69.3,56.8,41.4,87,62,44,30.05,29.86,0,0,0,0.00
2013-10-6,78.4,63.9,50.5,51.6,45.7,38.6,88,56,25,30.12,30.02,0,0,0,0.90
2013-10-7,87.0,59.1,45.3,53.7,44.3,39.8,83,63,25,30.15,30.02,0,0,0,0.00
2013-10-8,88.1,65.5,49.6,53.5,47.9,43.3,83,58,29,30.06,29.95,0,0,0,0.00
2013-10-9,86.1,67.0,54.3,62.1,55.0,47.4,88,68,42,30.03,29.93,0,0,0,0.00
2013-10-10,88.3,70.9,61.5,66.6,61.7,57.9,89,74,46,30.00,29.86,0,0,0,0.00
2013-10-11,88.7,75.6,68.7,72.5,68.4,63.0,88,80,57,29.92,29.82,0,0,0,0.00
2013-10-12,91.7,79.6,73.7,73.8,71.0,69.0,90,77,53,29.99,29.88,0,0,0,0.02
2013-10-13,74.6,66.9,64.2,71.2,63.9,61.3,90,90,88,30.11,29.99,0,0,0,6.63
2013-10-14,81.3,76.6,71.2,73.1,70.6,67.8,90,82,73,29.99,29.90,0,0,0,0.00
2013-10-15,84.7,74.1,55.9,71.2,67.2,53.0,90,80,63,29.99,29.86,0,0,0,0.00
2013-10-16,55.9,53.5,51.6,53.0,50.9,49.0,91,91,90,30.04,29.96,0,0,0,1.04
2013-10-23,46.9,46.6,46.5,41.4,41.2,41.1,82,81,81,30.09,30.08,0,0,0,0.00
2013-10-24,84.2,64.0,50.1,50.2,46.7,42.5,77,56,30,30.19,30.09,0,0,0,0.00
2013-10-25,81.5,64.3,50.0,61.2,54.7,46.3,89,73,49,30.27,30.16,0,0,0,0.00
2013-10-26,64.7,63.3,62.9,61.5,59.8,58.4,90,89,83,30.18,30.12,0,0,0,0.00
2013-11-2,71.0,53.7,47.3,39.3,37.9,36.9,68,57,29,30.20,30.18,0,0,0,0.00
2013-11-3,72.5,54.7,39.0,48.8,40.5,33.6,83,62,35,30.19,29.97,0,0,0,0.00
2013-11-4,65.8,61.3,57.7,59.9,56.6,48.8,90,85,77,30.02,29.93,0,0,0,0.02
2013-11-5,75.5,66.8,62.4,66.1,62.7,59.5,91,87,72,29.98,29.87,0,0,0,0.00